Time,TemperatureF,DewpointF,PressureIn,WindDirection,WindDirectionDegrees,WindSpeedMPH,WindSpeedGustMPH,Humidity,HourlyPrecipIn,Conditions,Clouds,dailyrainin,SoftwareType,DateUTC
2013-06-23 00:01:00,72.6,66.9,29.74,East,101,1.0,5.0,82,0.00,,,0.00,WUHU216DAVISVP2,2013-06-23 05:01:00,
2013-06-23 00:06:00,72.5,66.8,29.74,ENE,65,1.0,4.0,82,0.00,,,0.00,WUHU216DAVISVP2,2013-06-23 05:06:00,
2013-06-23 00:11:00,72.4,67.0,29.74,East,84,0.0,4.0,83,0.00,,,0.00,WUHU216DAVISVP2,2013-06-23 05:11:00,
2013-06-23 00:16:00,72.4,67.0,29.74,ENE,75,0.0,4.0,83,0.00,,,0.00,WUHU216DAVISVP2,2013-06-23 05:16:00,
2013-06-23 00:21:00,72.4,67.0,29.74,East,86,1.0,4.0,83,0.00,,,0.00,WUHU216DAVISVP2,2013-06-23 05:21:00,
2013-06-23 00:26:00,72.5,67.1,29.74,East,92,1.0,5.0,83,0.00,,,0.00,WUHU216DAVISVP2,2013-06-23 05:26:00,
2013-06-23 00:31:00,72.4,67.0,29.73,ESE,110,1.0,5.0,83,0.00,,,0.00,WUHU216DAVISVP2,2013-06-23 05:31:00,
2013-06-23 00:36:00,72.4,67.0,29.73,SE,128,1.0,5.0,83,0.00,,,0.00,WUHU216DAVISVP2,2013-06-23 05:36:00,
2013-06-23 00:41:00,72.3,67.2,29.72,East,91,3.0,5.0,84,0.00,,,0.00,WUHU216DAVISVP2,2013-06-23 05:41:00,
2013-06-23 00:46:00,72.3,67.2,29.71,East,100,2.0,5.0,84,0.00,,,0.00,WUHU216DAVISVP2,2013-06-23 05:46:00,
2013-06-23 00:51:00,72.3,67.2,29.72,ESE,113,1.0,5.0,84,0.00,,,0.00,WUHU216DAVISVP2,2013-06-23 05:51:00,
2013-06-23 00:56:00,72.3,67.6,29.72,ESE,106,1.0,5.0,85,0.00,,,0.00,WUHU216DAVISVP2,2013-06-23 05:56:00,
2013-06-23 01:01:00,72.5,67.8,29.72,ESE,117,1.0,3.0,85,0.00,,,0.00,WUHU216DAVISVP2,2013-06-23 06:01:00,
2013-06-23 01:06:00,72.9,68.2,29.72,ESE,104,2.0,5.0,85,0.00,,,0.00,WUHU216DAVISVP2,2013-06-23 06:06:00,
2013-06-23 01:11:00,73.2,68.1,29.71,SE,124,2.0,5.0,84,0.00,,,0.00,WUHU216DAVISVP2,2013-06-23 06:11:00,
2013-06-23 01:16:00,73.5,68.4,29.71,ESE,118,1.0,5.0,84,0.00,,,0.00,WUHU216DAVISVP2,2013-06-23 06:16:00,
2013-06-23 01:21:00,73.9,68.5,29.70,SE,127,1.0,5.0,83,0.00,,,0.00,WUHU216DAVISVP2,2013-06-23 06:21:00,
2013-06-23 01:26:00,74.6,68.5,29.69,ESE,113,1.0,8.0,81,0.00,,,0.00,WUHU216DAVISVP2,2013-06-23 06:26:00,
2013-06-23 01:31:00,75.5,68.6,29.69,SSE,149,2.0,8.0,79,0.00,,,0.00,WUHU216DAVISVP2,2013-06-23 06:31:00,
2013-06-23 01:36:00,76.1,68.5,29.68,SSE,168,4.0,8.0,77,0.00,,,0.00,WUHU216DAVISVP2,2013-06-23 06:36:00,
2013-06-23 01:41:00,76.5,68.5,29.67,SE,145,3.0,8.0,76,0.00,,,0.00,WUHU216DAVISVP2,2013-06-23 06:41:00,
2013-06-23 01:46:00,76.7,68.3,29.67,SSE,161,3.0,12.0,75,0.00,,,0.00,WUHU216DAVISVP2,2013-06-23 06:46:00,
2013-06-23 01:51:00,76.9,68.5,29.67,SE,131,6.0,12.0,75,0.00,,,0.00,WUHU216DAVISVP2,2013-06-23 06:51:00,
2013-06-23 01:56:00,77.0,68.6,29.67,SE,137,1.0,12.0,75,0.00,,,0.00,WUHU216DAVISVP2,2013-06-23 06:56:00,
2013-06-23 02:01:00,77.0,68.6,29.68,SE,139,1.0,7.0,75,0.00,,,0.00,WUHU216DAVISVP2,2013-06-23 07:01:00,
2013-06-23 02:06:00,77.1,68.7,29.70,WSW,242,1.0,7.0,75,0.00,,,0.00,WUHU216DAVISVP2,2013-06-23 07:06:00,
2013-06-23 02:11:00,77.2,68.8,29.71,West,261,2.0,5.0,75,0.00,,,0.00,WUHU216DAVISVP2,2013-06-23 07:11:00,
2013-06-23 02:16:00,77.3,68.9,29.74,WSW,248,4.0,8.0,75,0.00,,,0.00,WUHU216DAVISVP2,2013-06-23 07:16:00,
2013-06-23 02:21:00,76.6,68.6,29.75,WNW,302,8.0,10.0,76,0.00,,,0.00,WUHU216DAVISVP2,2013-06-23 07:21:00,
2013-06-23 02:26:00,73.8,66.6,29.76,NW,306,5.0,15.0,78,0.00,,,0.00,WUHU216DAVISVP2,2013-06-23 07:26:00,
2013-06-23 02:31:00,70.0,64.6,29.77,WNW,294,9.0,15.0,83,0.03,,,0.03,WUHU216DAVISVP2,2013-06-23 07:31:00,
2013-06-23 02:36:00,67.7,63.7,29.76,NW,314,3.0,15.0,87,0.04,,,0.04,WUHU216DAVISVP2,2013-06-23 07:36:00,
2013-06-23 02:41:00,66.6,63.2,29.77,NW,311,5.0,15.0,89,0.07,,,0.07,WUHU216DAVISVP2,2013-06-23 07:41:00,
2013-06-23 02:46:00,65.9,63.2,29.77,NW,320,3.0,14.0,91,0.09,,,0.09,WUHU216DAVISVP2,2013-06-23 07:46:00,
2013-06-23 02:51:00,65.5,63.1,29.79,West,271,2.0,13.0,92,0.11,,,0.11,WUHU216DAVISVP2,2013-06-23 07:51:00,
2013-06-23 02:56:00,65.2,63.1,29.81,NW,312,3.0,13.0,93,0.13,,,0.13,WUHU216DAVISVP2,2013-06-23 07:56:00,
2013-06-23 03:01:00,65.0,62.9,29.80,West,277,9.0,15.0,93,0.14,,,0.14,WUHU216DAVISVP2,2013-06-23 08:01:00,
2013-06-23 03:06:00,64.8,62.7,29.79,WNW,300,5.0,15.0,93,0.14,,,0.14,WUHU216DAVISVP2,2013-06-23 08:06:00,
2013-06-23 03:11:00,64.5,62.4,29.77,WSW,257,5.0,15.0,93,0.14,,,0.14,WUHU216DAVISVP2,2013-06-23 08:11:00,
2013-06-23 03:16:00,64.2,61.8,29.77,West,268,12.0,16.0,92,0.14,,,0.14,WUHU216DAVISVP2,2013-06-23 08:16:00,
2013-06-23 03:21:00,64.0,61.6,29.77,WNW,299,4.0,19.0,92,0.14,,,0.14,WUHU216DAVISVP2,2013-06-23 08:21:00,
2013-06-23 03:26:00,63.8,61.1,29.78,NW,306,6.0,19.0,91,0.14,,,0.14,WUHU216DAVISVP2,2013-06-23 08:26:00,
2013-06-23 03:31:00,63.7,61.0,29.81,North,9,5.0,19.0,91,0.11,,,0.14,WUHU216DAVISVP2,2013-06-23 08:31:00,
2013-06-23 03:36:00,63.7,60.7,29.80,WNW,289,4.0,19.0,90,0.10,,,0.14,WUHU216DAVISVP2,2013-06-23 08:36:00,
2013-06-23 03:41:00,63.9,60.9,29.80,NW,321,3.0,14.0,90,0.07,,,0.14,WUHU216DAVISVP2,2013-06-23 08:41:00,
2013-06-23 03:46:00,64.0,61.0,29.81,NNW,343,3.0,9.0,90,0.05,,,0.14,WUHU216DAVISVP2,2013-06-23 08:46:00,
2013-06-23 03:51:00,64.0,61.0,29.80,North,10,1.0,7.0,90,0.03,,,0.14,WUHU216DAVISVP2,2013-06-23 08:51:00,
2013-06-23 03:56:00,64.0,61.0,29.79,NW,326,1.0,7.0,90,0.01,,,0.14,WUHU216DAVISVP2,2013-06-23 08:56:00,
2013-06-23 04:01:00,64.1,61.1,29.79,West,281,2.0,5.0,90,0.00,,,0.14,WUHU216DAVISVP2,2013-06-23 09:01:00,
2013-06-23 04:06:00,64.1,61.1,29.80,West,265,2.0,5.0,90,0.00,,,0.14,WUHU216DAVISVP2,2013-06-23 09:06:00,
2013-06-23 04:11:00,64.2,60.9,29.82,SW,221,4.0,5.0,89,0.00,,,0.14,WUHU216DAVISVP2,2013-06-23 09:11:00,
2013-06-23 04:16:00,64.2,61.2,29.84,WNW,295,0.0,5.0,90,0.00,,,0.14,WUHU216DAVISVP2,2013-06-23 09:16:00,
2013-06-23 04:21:00,64.2,61.2,29.84,West,281,0.0,5.0,90,0.00,,,0.14,WUHU216DAVISVP2,2013-06-23 09:21:00,
2013-06-23 04:26:00,64.2,61.2,29.85,West,280,0.0,4.0,90,0.00,,,0.14,WUHU216DAVISVP2,2013-06-23 09:26:00,
2013-06-23 04:31:00,64.2,61.2,29.86,West,279,0.0,4.0,90,0.00,,,0.14,WUHU216DAVISVP2,2013-06-23 09:31:00,
2013-06-23 04:36:00,64.2,61.2,29.87,SSW,213,0.0,1.0,90,0.00,,,0.14,WUHU216DAVISVP2,2013-06-23 09:36:00,
2013-06-23 04:41:00,64.2,61.2,29.88,SW,234,0.0,0.0,90,0.00,,,0.14,WUHU216DAVISVP2,2013-06-23 09:41:00,
2013-06-23 04:46:00,64.2,61.2,29.86,NNW,335,0.0,0.0,90,0.00,,,0.14,WUHU216DAVISVP2,2013-06-23 09:46:00,
2013-06-23 04:51:00,64.3,61.3,29.83,NNW,342,0.0,0.0,90,0.00,,,0.14,WUHU216DAVISVP2,2013-06-23 09:51:00,
2013-06-23 04:56:00,64.2,61.5,29.81,NNE,32,0.0,0.0,91,0.00,,,0.14,WUHU216DAVISVP2,2013-06-23 09:56:00,
2013-06-23 05:01:00,64.0,61.3,29.80,NNE,27,0.0,1.0,91,0.00,,,0.14,WUHU216DAVISVP2,2013-06-23 10:01:00,
2013-06-23 05:06:00,63.9,61.5,29.76,North,358,0.0,1.0,92,0.00,,,0.14,WUHU216DAVISVP2,2013-06-23 10:06:00,
2013-06-23 05:11:00,63.7,61.3,29.75,NW,322,0.0,1.0,92,0.01,,,0.15,WUHU216DAVISVP2,2013-06-23 10:11:00,
2013-06-23 05:16:00,63.6,61.2,29.72,ESE,111,1.0,3.0,92,0.01,,,0.15,WUHU216DAVISVP2,2013-06-23 10:16:00,
2013-06-23 05:21:00,63.6,61.2,29.74,SSW,195,0.0,3.0,92,0.01,,,0.15,WUHU216DAVISVP2,2013-06-23 10:21:00,
2013-06-23 05:26:00,63.5,61.1,29.74,ENE,74,0.0,3.0,92,0.01,,,0.15,WUHU216DAVISVP2,2013-06-23 10:26:00,
2013-06-23 05:31:00,63.4,61.0,29.75,East,86,0.0,3.0,92,0.01,,,0.15,WUHU216DAVISVP2,2013-06-23 10:31:00,
2013-06-23 05:36:00,63.3,61.2,29.75,East,86,0.0,2.0,93,0.01,,,0.15,WUHU216DAVISVP2,2013-06-23 10:36:00,
2013-06-23 05:41:00,63.2,61.1,29.76,East,86,0.0,2.0,93,0.01,,,0.15,WUHU216DAVISVP2,2013-06-23 10:41:00,
2013-06-23 05:46:00,63.2,61.4,29.77,SSE,164,0.0,0.0,94,0.01,,,0.15,WUHU216DAVISVP2,2013-06-23 10:46:00,
2013-06-23 05:51:00,63.2,61.4,29.80,SW,229,0.0,0.0,94,0.01,,,0.15,WUHU216DAVISVP2,2013-06-23 10:51:00,
2013-06-23 05:56:00,63.3,61.5,29.80,ESE,123,0.0,3.0,94,0.01,,,0.15,WUHU216DAVISVP2,2013-06-23 10:56:00,
2013-06-23 06:01:00,63.3,61.5,29.77,ESE,109,1.0,4.0,94,0.01,,,0.15,WUHU216DAVISVP2,2013-06-23 11:01:00,
2013-06-23 06:06:00,63.3,61.5,29.79,WSW,254,0.0,4.0,94,0.01,,,0.15,WUHU216DAVISVP2,2013-06-23 11:06:00,
2013-06-23 06:11:00,63.2,61.4,29.80,SSE,154,0.0,4.0,94,0.00,,,0.15,WUHU216DAVISVP2,2013-06-23 11:11:00,
2013-06-23 06:16:00,63.2,61.4,29.80,SE,145,0.0,4.0,94,0.00,,,0.15,WUHU216DAVISVP2,2013-06-23 11:16:00,
2013-06-23 06:21:00,63.1,61.3,29.80,SE,134,0.0,2.0,94,0.00,,,0.15,WUHU216DAVISVP2,2013-06-23 11:21:00,
2013-06-23 06:26:00,63.1,61.3,29.80,ESE,122,0.0,2.0,94,0.00,,,0.15,WUHU216DAVISVP2,2013-06-23 11:26:00,
2013-06-23 06:31:00,63.1,61.3,29.80,SE,139,0.0,2.0,94,0.00,,,0.15,WUHU216DAVISVP2,2013-06-23 11:31:00,
2013-06-23 06:36:00,63.1,61.3,29.80,WNW,282,0.0,1.0,94,0.00,,,0.15,WUHU216DAVISVP2,2013-06-23 11:36:00,
2013-06-23 06:41:00,63.1,61.3,29.79,NNE,31,0.0,1.0,94,0.00,,,0.15,WUHU216DAVISVP2,2013-06-23 11:41:00,
2013-06-23 06:46:00,63.1,61.3,29.79,North,356,0.0,0.0,94,0.00,,,0.15,WUHU216DAVISVP2,2013-06-23 11:46:00,
2013-06-23 06:51:00,62.9,61.1,29.79,NNW,341,0.0,0.0,94,0.00,,,0.15,WUHU216DAVISVP2,2013-06-23 11:51:00,
2013-06-23 06:56:00,62.9,61.1,29.79,NNW,341,0.0,0.0,94,0.00,,,0.15,WUHU216DAVISVP2,2013-06-23 11:56:00,
2013-06-23 07:01:00,62.9,61.1,29.77,NNW,342,0.0,0.0,94,0.00,,,0.15,WUHU216DAVISVP2,2013-06-23 12:01:00,
2013-06-23 07:06:00,62.9,61.4,29.78,NNW,342,0.0,0.0,95,0.00,,,0.15,WUHU216DAVISVP2,2013-06-23 12:06:00,
2013-06-23 07:10:00,62.9,61.4,29.80,West,271,0.0,1.0,95,0.00,,,0.15,WUHU216DAVISVP2,2013-06-23 12:10:00,
2013-06-23 07:15:00,62.9,61.4,29.80,West,264,0.0,1.0,95,0.00,,,0.15,WUHU216DAVISVP2,2013-06-23 12:15:00,
2013-06-23 07:20:00,62.9,61.4,29.82,NW,312,0.0,1.0,95,0.00,,,0.15,WUHU216DAVISVP2,2013-06-23 12:20:00,
2013-06-23 07:25:00,63.0,61.5,29.82,WNW,291,0.0,1.0,95,0.00,,,0.15,WUHU216DAVISVP2,2013-06-23 12:25:00,
2013-06-23 07:30:00,63.1,61.6,29.82,West,269,0.0,1.0,95,0.00,,,0.15,WUHU216DAVISVP2,2013-06-23 12:30:00,
2013-06-23 07:35:00,63.2,61.7,29.82,WSW,243,0.0,1.0,95,0.00,,,0.15,WUHU216DAVISVP2,2013-06-23 12:35:00,
2013-06-23 07:40:00,63.2,61.7,29.83,WSW,256,1.0,3.0,95,0.00,,,0.15,WUHU216DAVISVP2,2013-06-23 12:40:00,
2013-06-23 07:45:00,63.3,61.5,29.82,WNW,302,1.0,4.0,94,0.00,,,0.15,WUHU216DAVISVP2,2013-06-23 12:45:00,
2013-06-23 07:50:00,63.4,61.9,29.82,NW,312,1.0,4.0,95,0.00,,,0.15,WUHU216DAVISVP2,2013-06-23 12:50:00,
2013-06-23 07:55:00,63.5,61.7,29.82,WNW,300,2.0,4.0,94,0.00,,,0.15,WUHU216DAVISVP2,2013-06-23 12:55:00,
2013-06-23 08:00:00,63.6,61.8,29.82,WNW,291,1.0,4.0,94,0.00,,,0.15,WUHU216DAVISVP2,2013-06-23 13:00:00,
2013-06-23 08:05:00,63.8,62.0,29.82,WNW,297,1.0,4.0,94,0.00,,,0.15,WUHU216DAVISVP2,2013-06-23 13:05:00,
2013-06-23 08:10:00,64.0,62.2,29.83,WNW,293,0.0,4.0,94,0.00,,,0.15,WUHU216DAVISVP2,2013-06-23 13:10:00,
2013-06-23 08:15:00,64.2,62.1,29.83,WNW,297,2.0,4.0,93,0.00,,,0.15,WUHU216DAVISVP2,2013-06-23 13:15:00,
2013-06-23 08:20:00,64.3,62.2,29.83,WNW,295,2.0,4.0,93,0.00,,,0.15,WUHU216DAVISVP2,2013-06-23 13:20:00,
2013-06-23 08:25:00,64.4,62.3,29.83,WNW,303,1.0,4.0,93,0.00,,,0.15,WUHU216DAVISVP2,2013-06-23 13:25:00,
2013-06-23 08:30:00,64.6,62.2,29.83,West,280,1.0,4.0,92,0.00,,,0.15,WUHU216DAVISVP2,2013-06-23 13:30:00,
2013-06-23 08:35:00,64.8,62.4,29.83,WNW,295,3.0,4.0,92,0.00,,,0.15,WUHU216DAVISVP2,2013-06-23 13:35:00,
2013-06-23 08:40:00,64.9,62.2,29.82,WNW,289,1.0,4.0,91,0.00,,,0.15,WUHU216DAVISVP2,2013-06-23 13:40:00,
2013-06-23 08:45:00,65.2,62.5,29.82,NW,311,1.0,4.0,91,0.00,,,0.15,WUHU216DAVISVP2,2013-06-23 13:45:00,
2013-06-23 08:50:00,65.6,62.6,29.82,WNW,283,1.0,4.0,90,0.00,,,0.15,WUHU216DAVISVP2,2013-06-23 13:50:00,
2013-06-23 08:55:00,65.9,62.6,29.82,NW,304,2.0,5.0,89,0.00,,,0.15,WUHU216DAVISVP2,2013-06-23 13:55:00,
2013-06-23 09:00:00,66.2,62.8,29.82,NW,312,2.0,5.0,89,0.00,,,0.15,WUHU216DAVISVP2,2013-06-23 14:00:00,
2013-06-23 09:05:00,66.3,62.9,29.83,WNW,299,2.0,5.0,89,0.00,,,0.15,WUHU216DAVISVP2,2013-06-23 14:05:00,
2013-06-23 09:10:00,66.6,63.2,29.83,NW,309,1.0,5.0,89,0.00,,,0.15,WUHU216DAVISVP2,2013-06-23 14:10:00,
2013-06-23 09:15:00,66.8,63.1,29.83,NW,313,1.0,4.0,88,0.00,,,0.15,WUHU216DAVISVP2,2013-06-23 14:15:00,
2013-06-23 09:20:00,67.1,63.1,29.83,NW,310,1.0,4.0,87,0.00,,,0.15,WUHU216DAVISVP2,2013-06-23 14:20:00,
2013-06-23 09:25:00,67.2,62.6,29.83,NW,304,2.0,7.0,85,0.00,,,0.15,WUHU216DAVISVP2,2013-06-23 14:25:00,
2013-06-23 09:30:00,67.3,63.0,29.84,WSW,256,2.0,7.0,86,0.00,,,0.15,WUHU216DAVISVP2,2013-06-23 14:30:00,
2013-06-23 09:35:00,67.4,62.8,29.84,NW,317,3.0,7.0,85,0.00,,,0.15,WUHU216DAVISVP2,2013-06-23 14:35:00,
2013-06-23 09:40:00,67.6,63.3,29.84,NW,315,4.0,7.0,86,0.00,,,0.15,WUHU216DAVISVP2,2013-06-23 14:40:00,
2013-06-23 09:45:00,67.7,63.4,29.85,WNW,297,3.0,7.0,86,0.00,,,0.15,WUHU216DAVISVP2,2013-06-23 14:45:00,
2013-06-23 09:50:00,67.9,63.6,29.85,WNW,303,1.0,7.0,86,0.00,,,0.15,WUHU216DAVISVP2,2013-06-23 14:50:00,
2013-06-23 09:55:00,68.0,63.3,29.85,NW,309,4.0,7.0,85,0.00,,,0.15,WUHU216DAVISVP2,2013-06-23 14:55:00,
2013-06-23 10:01:00,68.1,63.8,29.85,NW,311,2.0,6.0,86,0.00,,,0.15,WUHU216DAVISVP2,2013-06-23 15:01:00,
2013-06-23 10:06:00,68.3,63.3,29.85,NW,321,2.0,6.0,84,0.00,,,0.15,WUHU216DAVISVP2,2013-06-23 15:06:00,
2013-06-23 10:11:00,68.7,63.4,29.86,WNW,301,2.0,6.0,83,0.00,,,0.15,WUHU216DAVISVP2,2013-06-23 15:11:00,
2013-06-23 10:16:00,69.0,63.3,29.86,NW,307,3.0,6.0,82,0.00,,,0.15,WUHU216DAVISVP2,2013-06-23 15:16:00,
2013-06-23 10:21:00,69.9,64.2,29.86,West,268,2.0,6.0,82,0.00,,,0.15,WUHU216DAVISVP2,2013-06-23 15:21:00,
2013-06-23 10:26:00,70.6,64.6,29.86,SW,221,1.0,6.0,81,0.00,,,0.15,WUHU216DAVISVP2,2013-06-23 15:26:00,
2013-06-23 10:31:00,71.2,64.1,29.86,WNW,283,2.0,5.0,78,0.00,,,0.15,WUHU216DAVISVP2,2013-06-23 15:31:00,
2013-06-23 10:36:00,71.4,63.9,29.86,NNW,339,1.0,5.0,77,0.00,,,0.15,WUHU216DAVISVP2,2013-06-23 15:36:00,
2013-06-23 10:41:00,71.5,64.0,29.86,WSW,250,2.0,5.0,77,0.00,,,0.15,WUHU216DAVISVP2,2013-06-23 15:41:00,
2013-06-23 10:46:00,72.0,63.8,29.87,West,272,2.0,5.0,75,0.00,,,0.15,WUHU216DAVISVP2,2013-06-23 15:46:00,
2013-06-23 10:51:00,72.2,63.2,29.87,WSW,245,2.0,5.0,73,0.00,,,0.15,WUHU216DAVISVP2,2013-06-23 15:51:00,
2013-06-23 10:56:00,72.4,63.4,29.87,WSW,249,2.0,5.0,73,0.00,,,0.15,WUHU216DAVISVP2,2013-06-23 15:56:00,
2013-06-23 11:01:00,72.4,63.6,29.87,SSW,207,4.0,5.0,74,0.00,,,0.15,WUHU216DAVISVP2,2013-06-23 16:01:00,
2013-06-23 11:06:00,72.6,63.8,29.88,WSW,258,1.0,8.0,74,0.00,,,0.15,WUHU216DAVISVP2,2013-06-23 16:06:00,
2013-06-23 11:11:00,72.8,63.6,29.88,SSW,204,3.0,8.0,73,0.00,,,0.15,WUHU216DAVISVP2,2013-06-23 16:11:00,
2013-06-23 11:16:00,72.7,64.1,29.89,SW,216,3.0,8.0,74,0.00,,,0.15,WUHU216DAVISVP2,2013-06-23 16:16:00,
2013-06-23 11:21:00,72.7,63.7,29.89,WNW,286,2.0,8.0,73,0.00,,,0.15,WUHU216DAVISVP2,2013-06-23 16:21:00,
2013-06-23 11:26:00,72.7,64.1,29.88,NW,314,3.0,6.0,74,0.00,,,0.15,WUHU216DAVISVP2,2013-06-23 16:26:00,
2013-06-23 11:31:00,72.7,64.5,29.88,SSW,193,4.0,6.0,75,0.00,,,0.15,WUHU216DAVISVP2,2013-06-23 16:31:00,
2013-06-23 11:36:00,72.7,64.5,29.88,SW,231,3.0,8.0,75,0.00,,,0.15,WUHU216DAVISVP2,2013-06-23 16:36:00,
2013-06-23 11:41:00,72.9,64.3,29.88,SW,220,2.0,8.0,74,0.00,,,0.15,WUHU216DAVISVP2,2013-06-23 16:41:00,
2013-06-23 11:46:00,73.0,64.8,29.88,WSW,257,2.0,8.0,75,0.00,,,0.15,WUHU216DAVISVP2,2013-06-23 16:46:00,
2013-06-23 11:51:00,73.3,64.3,29.88,WSW,257,7.0,8.0,73,0.00,,,0.15,WUHU216DAVISVP2,2013-06-23 16:51:00,
2013-06-23 11:56:00,73.7,64.7,29.88,SW,222,3.0,7.0,73,0.00,,,0.15,WUHU216DAVISVP2,2013-06-23 16:56:00,
2013-06-23 11:57:00,73.7,64.7,29.88,WSW,246,3.0,7.0,73,0.00,,,0.15,WUHU216DAVISVP2,2013-06-23 16:57:00,
2013-06-23 12:03:00,74.4,65.4,29.88,SW,233,5.0,7.0,73,0.00,,,0.15,WUHU216DAVISVP2,2013-06-23 17:03:00,
2013-06-23 12:08:00,74.8,64.2,29.88,SSW,203,2.0,7.0,69,0.00,,,0.15,WUHU216DAVISVP2,2013-06-23 17:08:00,
2013-06-23 12:13:00,74.9,64.2,29.88,West,278,2.0,7.0,69,0.00,,,0.15,WUHU216DAVISVP2,2013-06-23 17:13:00,
2013-06-23 12:18:00,75.1,64.4,29.88,SW,231,2.0,7.0,69,0.00,,,0.15,WUHU216DAVISVP2,2013-06-23 17:18:00,
2013-06-23 12:23:00,75.5,65.2,29.88,West,263,1.0,6.0,70,0.00,,,0.15,WUHU216DAVISVP2,2013-06-23 17:23:00,
2013-06-23 12:28:00,75.4,64.7,29.88,SSW,209,6.0,8.0,69,0.00,,,0.15,WUHU216DAVISVP2,2013-06-23 17:28:00,
2013-06-23 12:33:00,75.1,63.4,29.88,SE,146,6.0,8.0,67,0.00,,,0.15,WUHU216DAVISVP2,2013-06-23 17:33:00,
2013-06-23 12:38:00,74.5,64.1,29.89,WNW,288,2.0,8.0,70,0.00,,,0.15,WUHU216DAVISVP2,2013-06-23 17:38:00,
2013-06-23 12:43:00,74.7,63.9,29.89,SSW,211,2.0,8.0,69,0.00,,,0.15,WUHU216DAVISVP2,2013-06-23 17:43:00,
2013-06-23 12:48:00,74.9,65.1,29.88,West,278,1.0,8.0,71,0.00,,,0.15,WUHU216DAVISVP2,2013-06-23 17:48:00,
2013-06-23 12:53:00,75.2,63.7,29.89,NW,310,4.0,6.0,67,0.00,,,0.15,WUHU216DAVISVP2,2013-06-23 17:53:00,
2013-06-23 12:58:00,75.9,63.9,29.89,SSW,213,6.0,7.0,66,0.00,,,0.15,WUHU216DAVISVP2,2013-06-23 17:58:00,
2013-06-23 13:03:00,76.2,64.2,29.89,WSW,249,5.0,7.0,66,0.00,,,0.15,WUHU216DAVISVP2,2013-06-23 18:03:00,
2013-06-23 13:08:00,76.3,64.3,29.89,SW,230,2.0,7.0,66,0.00,,,0.15,WUHU216DAVISVP2,2013-06-23 18:08:00,
2013-06-23 13:13:00,76.6,64.6,29.89,WNW,295,3.0,7.0,66,0.00,,,0.15,WUHU216DAVISVP2,2013-06-23 18:13:00,
2013-06-23 13:18:00,76.3,64.3,29.89,SSW,213,1.0,7.0,66,0.00,,,0.15,WUHU216DAVISVP2,2013-06-23 18:18:00,
2013-06-23 13:23:00,76.8,64.6,29.89,WNW,293,2.0,7.0,66,0.00,,,0.15,WUHU216DAVISVP2,2013-06-23 18:23:00,
2013-06-23 13:28:00,76.7,63.6,29.89,SW,217,2.0,8.0,64,0.00,,,0.15,WUHU216DAVISVP2,2013-06-23 18:28:00,
2013-06-23 13:33:00,77.0,64.3,29.89,SW,231,1.0,8.0,65,0.00,,,0.15,WUHU216DAVISVP2,2013-06-23 18:33:00,
2013-06-23 13:38:00,77.6,64.2,29.89,SW,230,2.0,8.0,63,0.00,,,0.15,WUHU216DAVISVP2,2013-06-23 18:38:00,
2013-06-23 13:43:00,77.1,64.2,29.89,SW,221,2.0,8.0,64,0.00,,,0.15,WUHU216DAVISVP2,2013-06-23 18:43:00,
2013-06-23 13:48:00,77.6,64.0,29.89,West,264,2.0,8.0,63,0.00,,,0.15,WUHU216DAVISVP2,2013-06-23 18:48:00,
2013-06-23 13:53:00,78.0,64.6,29.89,SW,233,2.0,8.0,63,0.00,,,0.15,WUHU216DAVISVP2,2013-06-23 18:53:00,
2013-06-23 13:58:00,78.0,64.6,29.89,SSW,213,2.0,8.0,63,0.00,,,0.15,WUHU216DAVISVP2,2013-06-23 18:58:00,
2013-06-23 14:03:00,77.7,64.1,29.89,SSW,206,2.0,6.0,63,0.00,,,0.15,WUHU216DAVISVP2,2013-06-23 19:03:00,
2013-06-23 14:08:00,78.0,64.6,29.89,WNW,293,2.0,6.0,63,0.00,,,0.15,WUHU216DAVISVP2,2013-06-23 19:08:00,
2013-06-23 14:13:00,77.7,65.2,29.88,West,270,1.0,12.0,65,0.00,,,0.15,WUHU216DAVISVP2,2013-06-23 19:13:00,
2013-06-23 14:18:00,77.6,63.8,29.88,NNW,342,3.0,12.0,62,0.00,,,0.15,WUHU216DAVISVP2,2013-06-23 19:18:00,
2013-06-23 14:23:00,77.9,65.0,29.88,NW,304,4.0,12.0,64,0.00,,,0.15,WUHU216DAVISVP2,2013-06-23 19:23:00,
2013-06-23 14:28:00,78.5,65.1,29.88,WNW,290,4.0,10.0,63,0.00,,,0.15,WUHU216DAVISVP2,2013-06-23 19:28:00,
2013-06-23 14:33:00,78.5,64.9,29.88,SW,223,3.0,10.0,63,0.00,,,0.15,WUHU216DAVISVP2,2013-06-23 19:33:00,
2013-06-23 14:38:00,78.4,65.4,29.88,NW,309,4.0,10.0,64,0.00,,,0.15,WUHU216DAVISVP2,2013-06-23 19:38:00,
2013-06-23 14:43:00,78.1,63.8,29.88,NNE,23,7.0,8.0,61,0.00,,,0.15,WUHU216DAVISVP2,2013-06-23 19:43:00,
2013-06-23 14:48:00,78.9,64.5,29.88,WSW,243,2.0,9.0,61,0.00,,,0.15,WUHU216DAVISVP2,2013-06-23 19:48:00,
2013-06-23 14:53:00,78.9,65.2,29.88,WNW,290,4.0,9.0,63,0.00,,,0.15,WUHU216DAVISVP2,2013-06-23 19:53:00,
2013-06-23 14:58:00,78.7,62.9,29.88,WNW,284,3.0,9.0,58,0.00,,,0.15,WUHU216DAVISVP2,2013-06-23 19:58:00,
2013-06-23 15:03:00,78.7,63.9,29.88,WSW,237,2.0,7.0,60,0.00,,,0.15,WUHU216DAVISVP2,2013-06-23 20:03:00,
2013-06-23 15:08:00,78.8,63.5,29.88,WNW,290,3.0,7.0,59,0.00,,,0.15,WUHU216DAVISVP2,2013-06-23 20:08:00,
2013-06-23 15:13:00,79.6,64.7,29.87,SW,220,1.0,7.0,60,0.00,,,0.15,WUHU216DAVISVP2,2013-06-23 20:13:00,
2013-06-23 15:18:00,79.7,62.1,29.88,SSW,210,4.0,7.0,55,0.00,,,0.15,WUHU216DAVISVP2,2013-06-23 20:18:00,
2013-06-23 15:23:00,79.4,63.6,29.88,SSW,213,3.0,7.0,58,0.00,,,0.15,WUHU216DAVISVP2,2013-06-23 20:23:00,
2013-06-23 15:28:00,79.7,63.8,29.88,WNW,284,1.0,7.0,58,0.00,,,0.15,WUHU216DAVISVP2,2013-06-23 20:28:00,
2013-06-23 15:33:00,80.1,63.2,29.88,NW,309,2.0,7.0,56,0.00,,,0.15,WUHU216DAVISVP2,2013-06-23 20:33:00,
2013-06-23 15:38:00,80.0,63.1,29.87,WNW,295,4.0,7.0,56,0.00,,,0.15,WUHU216DAVISVP2,2013-06-23 20:38:00,
2013-06-23 15:43:00,79.8,63.4,29.87,West,267,2.0,7.0,57,0.00,,,0.15,WUHU216DAVISVP2,2013-06-23 20:43:00,
2013-06-23 15:48:00,80.1,65.2,29.87,NW,304,1.0,7.0,60,0.00,,,0.15,WUHU216DAVISVP2,2013-06-23 20:48:00,
2013-06-23 15:53:00,80.1,62.1,29.87,WSW,258,2.0,7.0,54,0.00,,,0.15,WUHU216DAVISVP2,2013-06-23 20:53:00,
2013-06-23 15:58:00,79.7,63.3,29.87,WSW,237,3.0,8.0,57,0.00,,,0.15,WUHU216DAVISVP2,2013-06-23 20:58:00,
2013-06-23 16:03:00,80.1,62.7,29.87,SW,235,1.0,8.0,55,0.00,,,0.15,WUHU216DAVISVP2,2013-06-23 21:03:00,
2013-06-23 16:08:00,80.7,63.8,29.88,SSW,203,2.0,8.0,56,0.00,,,0.15,WUHU216DAVISVP2,2013-06-23 21:08:00,
2013-06-23 16:13:00,80.4,63.5,29.88,NW,310,2.0,7.0,56,0.00,,,0.15,WUHU216DAVISVP2,2013-06-23 21:13:00,
2013-06-23 16:18:00,79.9,64.0,29.88,NW,318,1.0,6.0,58,0.00,,,0.15,WUHU216DAVISVP2,2013-06-23 21:18:00,
2013-06-23 16:23:00,80.8,63.8,29.88,SSW,209,3.0,6.0,56,0.00,,,0.15,WUHU216DAVISVP2,2013-06-23 21:23:00,
2013-06-23 16:28:00,80.9,62.9,29.89,West,267,2.0,6.0,54,0.00,,,0.15,WUHU216DAVISVP2,2013-06-23 21:28:00,
2013-06-23 16:33:00,81.1,64.1,29.89,SSW,213,3.0,6.0,56,0.00,,,0.15,WUHU216DAVISVP2,2013-06-23 21:33:00,
2013-06-23 16:38:00,81.4,63.9,29.89,NNW,332,4.0,6.0,55,0.00,,,0.15,WUHU216DAVISVP2,2013-06-23 21:38:00,
2013-06-23 16:43:00,81.3,63.2,29.89,SW,231,2.0,7.0,54,0.00,,,0.15,WUHU216DAVISVP2,2013-06-23 21:43:00,
2013-06-23 16:48:00,81.5,63.8,29.89,SSW,212,1.0,7.0,55,0.00,,,0.15,WUHU216DAVISVP2,2013-06-23 21:48:00,
2013-06-23 16:53:00,81.8,64.3,29.89,NNW,333,3.0,7.0,55,0.00,,,0.15,WUHU216DAVISVP2,2013-06-23 21:53:00,
2013-06-23 16:58:00,81.6,63.5,29.89,West,278,2.0,7.0,54,0.00,,,0.15,WUHU216DAVISVP2,2013-06-23 21:58:00,
2013-06-23 17:03:00,81.5,64.0,29.89,West,263,2.0,5.0,55,0.00,,,0.15,WUHU216DAVISVP2,2013-06-23 22:03:00,
2013-06-23 17:08:00,81.4,63.9,29.89,SW,217,2.0,6.0,55,0.00,,,0.15,WUHU216DAVISVP2,2013-06-23 22:08:00,
2013-06-23 17:13:00,81.8,63.5,29.89,WSW,248,1.0,6.0,54,0.00,,,0.15,WUHU216DAVISVP2,2013-06-23 22:13:00,
2013-06-23 17:18:00,81.5,62.9,29.89,WNW,297,1.0,6.0,53,0.00,,,0.15,WUHU216DAVISVP2,2013-06-23 22:18:00,
2013-06-23 17:23:00,81.3,62.7,29.89,NW,314,2.0,6.0,53,0.00,,,0.15,WUHU216DAVISVP2,2013-06-23 22:23:00,
2013-06-23 17:28:00,81.5,62.9,29.88,SW,233,2.0,6.0,53,0.00,,,0.15,WUHU216DAVISVP2,2013-06-23 22:28:00,
2013-06-23 17:33:00,81.5,62.3,29.88,WSW,245,1.0,6.0,52,0.00,,,0.15,WUHU216DAVISVP2,2013-06-23 22:33:00,
2013-06-23 17:38:00,81.6,62.3,29.88,West,259,1.0,5.0,52,0.00,,,0.15,WUHU216DAVISVP2,2013-06-23 22:38:00,
2013-06-23 17:43:00,81.7,61.8,29.88,SW,232,2.0,6.0,51,0.00,,,0.15,WUHU216DAVISVP2,2013-06-23 22:43:00,
2013-06-23 17:48:00,81.7,62.9,29.88,WNW,284,2.0,6.0,53,0.00,,,0.15,WUHU216DAVISVP2,2013-06-23 22:48:00,
2013-06-23 17:53:00,81.3,62.5,29.88,SSE,155,2.0,6.0,53,0.00,,,0.15,WUHU216DAVISVP2,2013-06-23 22:53:00,
2013-06-23 17:58:00,81.5,63.4,29.88,WNW,293,2.0,6.0,54,0.00,,,0.15,WUHU216DAVISVP2,2013-06-23 22:58:00,
2013-06-23 18:03:00,81.1,62.0,29.88,WNW,286,5.0,8.0,52,0.00,,,0.15,WUHU216DAVISVP2,2013-06-23 23:03:00,
2013-06-23 18:08:00,80.8,62.1,29.88,West,265,3.0,8.0,53,0.00,,,0.15,WUHU216DAVISVP2,2013-06-23 23:08:00,
2013-06-23 18:13:00,80.5,62.5,29.88,WSW,250,2.0,8.0,54,0.00,,,0.15,WUHU216DAVISVP2,2013-06-23 23:13:00,
2013-06-23 18:18:00,80.6,63.1,29.88,NE,35,2.0,8.0,55,0.00,,,0.15,WUHU216DAVISVP2,2013-06-23 23:18:00,
2013-06-23 18:23:00,80.5,62.5,29.88,North,349,2.0,7.0,54,0.00,,,0.15,WUHU216DAVISVP2,2013-06-23 23:23:00,
2013-06-23 18:28:00,80.6,61.9,29.88,WNW,299,2.0,7.0,53,0.00,,,0.15,WUHU216DAVISVP2,2013-06-23 23:28:00,
2013-06-23 18:33:00,80.7,62.0,29.88,West,268,1.0,7.0,53,0.00,,,0.15,WUHU216DAVISVP2,2013-06-23 23:33:00,
2013-06-23 18:38:00,80.5,60.7,29.88,West,281,2.0,7.0,51,0.00,,,0.15,WUHU216DAVISVP2,2013-06-23 23:38:00,
2013-06-23 18:43:00,80.3,60.7,29.88,WSW,251,4.0,7.0,51,0.00,,,0.15,WUHU216DAVISVP2,2013-06-23 23:43:00,
2013-06-23 18:48:00,80.2,61.7,29.88,West,274,1.0,6.0,53,0.00,,,0.15,WUHU216DAVISVP2,2013-06-23 23:48:00,
2013-06-23 18:53:00,80.5,61.4,29.88,NW,307,2.0,6.0,52,0.00,,,0.15,WUHU216DAVISVP2,2013-06-23 23:53:00,
2013-06-23 18:58:00,80.5,61.4,29.88,WNW,297,3.0,6.0,52,0.00,,,0.15,WUHU216DAVISVP2,2013-06-23 23:58:00,
2013-06-23 19:03:00,80.2,61.7,29.88,North,357,0.0,6.0,53,0.00,,,0.15,WUHU216DAVISVP2,2013-06-24 00:03:00,
2013-06-23 19:08:00,80.6,61.9,29.89,WSW,238,1.0,5.0,53,0.00,,,0.15,WUHU216DAVISVP2,2013-06-24 00:08:00,
2013-06-23 19:13:00,80.4,61.9,29.89,NNW,328,0.0,5.0,53,0.00,,,0.15,WUHU216DAVISVP2,2013-06-24 00:13:00,
2013-06-23 19:18:00,80.4,62.4,29.89,WNW,284,1.0,5.0,54,0.00,,,0.15,WUHU216DAVISVP2,2013-06-24 00:18:00,
2013-06-23 19:23:00,80.3,61.2,29.89,WNW,290,1.0,5.0,52,0.00,,,0.15,WUHU216DAVISVP2,2013-06-24 00:23:00,
2013-06-23 19:28:00,80.3,61.2,29.89,West,275,1.0,5.0,52,0.00,,,0.15,WUHU216DAVISVP2,2013-06-24 00:28:00,
2013-06-23 19:33:00,80.6,61.5,29.89,SW,231,1.0,3.0,52,0.00,,,0.15,WUHU216DAVISVP2,2013-06-24 00:33:00,
2013-06-23 19:38:00,80.5,60.7,29.89,West,278,1.0,3.0,51,0.00,,,0.15,WUHU216DAVISVP2,2013-06-24 00:38:00,
2013-06-23 19:43:00,80.7,61.0,29.89,WSW,252,0.0,2.0,51,0.00,,,0.15,WUHU216DAVISVP2,2013-06-24 00:43:00,
2013-06-23 19:48:00,80.7,61.0,29.89,WSW,246,1.0,3.0,51,0.00,,,0.15,WUHU216DAVISVP2,2013-06-24 00:48:00,
2013-06-23 19:53:00,80.5,60.8,29.89,West,266,0.0,3.0,51,0.00,,,0.15,WUHU216DAVISVP2,2013-06-24 00:53:00,
2013-06-23 19:58:00,81.3,61.0,29.89,West,265,0.0,3.0,50,0.00,,,0.15,WUHU216DAVISVP2,2013-06-24 00:58:00,
2013-06-23 20:03:00,81.3,61.0,29.89,WNW,298,1.0,3.0,50,0.00,,,0.15,WUHU216DAVISVP2,2013-06-24 01:03:00,
2013-06-23 20:08:00,81.2,60.8,29.89,West,275,0.0,3.0,50,0.00,,,0.15,WUHU216DAVISVP2,2013-06-24 01:08:00,
2013-06-23 20:13:00,80.8,60.5,29.89,West,276,0.0,3.0,50,0.00,,,0.15,WUHU216DAVISVP2,2013-06-24 01:13:00,
2013-06-23 20:18:00,80.3,60.7,29.89,West,275,0.0,2.0,51,0.00,,,0.15,WUHU216DAVISVP2,2013-06-24 01:18:00,
2013-06-23 20:23:00,79.9,60.8,29.89,West,276,0.0,2.0,52,0.00,,,0.15,WUHU216DAVISVP2,2013-06-24 01:23:00,
2013-06-23 20:28:00,79.3,60.8,29.90,SW,231,0.0,1.0,53,0.00,,,0.15,WUHU216DAVISVP2,2013-06-24 01:28:00,
2013-06-23 20:33:00,78.6,60.2,29.89,SW,233,0.0,1.0,53,0.00,,,0.15,WUHU216DAVISVP2,2013-06-24 01:33:00,
2013-06-23 20:38:00,78.1,60.3,29.90,SW,233,0.0,1.0,54,0.00,,,0.15,WUHU216DAVISVP2,2013-06-24 01:38:00,
2013-06-23 20:43:00,77.8,60.8,29.90,SW,233,0.0,1.0,56,0.00,,,0.15,WUHU216DAVISVP2,2013-06-24 01:43:00,
2013-06-23 20:48:00,77.6,60.2,29.90,SW,233,0.0,0.0,55,0.00,,,0.15,WUHU216DAVISVP2,2013-06-24 01:48:00,
2013-06-23 20:53:00,77.3,60.6,29.90,SW,233,0.0,1.0,56,0.00,,,0.15,WUHU216DAVISVP2,2013-06-24 01:53:00,
2013-06-23 20:58:00,76.8,60.6,29.90,SW,233,0.0,1.0,57,0.00,,,0.15,WUHU216DAVISVP2,2013-06-24 01:58:00,
2013-06-23 21:03:00,76.2,61.0,29.90,SW,233,0.0,1.0,59,0.00,,,0.15,WUHU216DAVISVP2,2013-06-24 02:03:00,
2013-06-23 21:08:00,75.8,61.1,29.90,SW,233,0.0,0.0,60,0.00,,,0.15,WUHU216DAVISVP2,2013-06-24 02:08:00,
2013-06-23 21:13:00,75.3,61.1,29.90,SW,233,0.0,0.0,61,0.00,,,0.15,WUHU216DAVISVP2,2013-06-24 02:13:00,
2013-06-23 21:18:00,74.9,60.5,29.90,SW,233,0.0,0.0,61,0.00,,,0.15,WUHU216DAVISVP2,2013-06-24 02:18:00,
2013-06-23 21:23:00,74.8,60.9,29.90,SW,233,0.0,0.0,62,0.00,,,0.15,WUHU216DAVISVP2,2013-06-24 02:23:00,
2013-06-23 21:28:00,74.2,61.0,29.90,SW,233,0.0,0.0,63,0.00,,,0.15,WUHU216DAVISVP2,2013-06-24 02:28:00,
2013-06-23 21:33:00,73.5,60.8,29.90,SW,233,0.0,0.0,64,0.00,,,0.15,WUHU216DAVISVP2,2013-06-24 02:33:00,
2013-06-23 21:38:00,73.0,60.5,29.90,SW,233,0.0,0.0,65,0.00,,,0.15,WUHU216DAVISVP2,2013-06-24 02:38:00,
2013-06-23 21:43:00,72.8,60.8,29.91,SW,233,0.0,0.0,66,0.00,,,0.15,WUHU216DAVISVP2,2013-06-24 02:43:00,
2013-06-23 21:48:00,72.6,61.2,29.91,SW,233,0.0,0.0,67,0.00,,,0.15,WUHU216DAVISVP2,2013-06-24 02:48:00,
2013-06-23 21:53:00,72.2,60.8,29.91,SW,233,0.0,0.0,67,0.00,,,0.15,WUHU216DAVISVP2,2013-06-24 02:53:00,
2013-06-23 21:58:00,72.0,61.1,29.91,SW,233,0.0,0.0,68,0.00,,,0.15,WUHU216DAVISVP2,2013-06-24 02:58:00,
2013-06-23 22:03:00,71.8,60.9,29.91,SW,233,0.0,0.0,68,0.00,,,0.15,WUHU216DAVISVP2,2013-06-24 03:03:00,
2013-06-23 22:08:00,71.6,60.7,29.91,SW,233,0.0,0.0,68,0.00,,,0.15,WUHU216DAVISVP2,2013-06-24 03:08:00,
2013-06-23 22:13:00,71.3,60.8,29.92,SW,233,0.0,0.0,69,0.00,,,0.15,WUHU216DAVISVP2,2013-06-24 03:13:00,
2013-06-23 22:18:00,71.2,61.1,29.92,SW,233,0.0,0.0,70,0.00,,,0.15,WUHU216DAVISVP2,2013-06-24 03:18:00,
2013-06-23 22:23:00,71.0,60.5,29.92,SW,233,0.0,0.0,69,0.00,,,0.15,WUHU216DAVISVP2,2013-06-24 03:23:00,
2013-06-23 22:28:00,70.7,61.0,29.92,SW,233,0.0,0.0,71,0.00,,,0.15,WUHU216DAVISVP2,2013-06-24 03:28:00,
2013-06-23 22:33:00,70.5,60.6,29.92,SW,233,0.0,0.0,71,0.00,,,0.15,WUHU216DAVISVP2,2013-06-24 03:33:00,
2013-06-23 22:38:00,70.5,60.6,29.92,SW,233,0.0,0.0,71,0.00,,,0.15,WUHU216DAVISVP2,2013-06-24 03:38:00,
2013-06-23 22:43:00,70.4,60.5,29.92,SW,233,0.0,0.0,71,0.00,,,0.15,WUHU216DAVISVP2,2013-06-24 03:43:00,
2013-06-23 22:48:00,70.3,60.6,29.92,SW,233,0.0,0.0,71,0.00,,,0.15,WUHU216DAVISVP2,2013-06-24 03:48:00,
2013-06-23 22:53:00,70.1,60.3,29.92,SW,233,0.0,0.0,71,0.00,,,0.15,WUHU216DAVISVP2,2013-06-24 03:53:00,
2013-06-23 22:58:00,70.0,60.2,29.92,SW,233,0.0,0.0,71,0.00,,,0.15,WUHU216DAVISVP2,2013-06-24 03:58:00,
2013-06-23 23:01:00,70.0,60.2,29.92,SW,233,0.0,0.0,71,0.00,,,0.15,WUHU216DAVISVP2,2013-06-24 04:01:00,
2013-06-23 23:06:00,69.9,60.6,29.93,SW,233,0.0,0.0,72,0.00,,,0.15,WUHU216DAVISVP2,2013-06-24 04:06:00,
2013-06-23 23:11:00,69.7,60.0,29.93,SW,233,0.0,0.0,71,0.00,,,0.15,WUHU216DAVISVP2,2013-06-24 04:11:00,
2013-06-23 23:16:00,69.6,60.3,29.93,SW,233,0.0,0.0,72,0.00,,,0.15,WUHU216DAVISVP2,2013-06-24 04:16:00,
2013-06-23 23:21:00,69.4,60.5,29.93,SW,233,0.0,0.0,73,0.00,,,0.15,WUHU216DAVISVP2,2013-06-24 04:21:00,
2013-06-23 23:26:00,69.3,60.4,29.93,SW,233,0.0,0.0,73,0.00,,,0.15,WUHU216DAVISVP2,2013-06-24 04:26:00,
2013-06-23 23:31:00,69.2,60.7,29.93,SW,233,0.0,0.0,74,0.00,,,0.15,WUHU216DAVISVP2,2013-06-24 04:31:00,
2013-06-23 23:36:00,69.1,60.5,29.93,SW,233,0.0,0.0,74,0.00,,,0.15,WUHU216DAVISVP2,2013-06-24 04:36:00,
2013-06-23 23:41:00,68.8,60.6,29.93,SW,233,0.0,0.0,75,0.00,,,0.15,WUHU216DAVISVP2,2013-06-24 04:41:00,
2013-06-23 23:46:00,68.7,60.8,29.94,SW,233,0.0,0.0,76,0.00,,,0.15,WUHU216DAVISVP2,2013-06-24 04:46:00,
2013-06-23 23:51:00,68.5,61.1,29.94,SW,233,0.0,0.0,77,0.00,,,0.15,WUHU216DAVISVP2,2013-06-24 04:51:00,
2013-06-23 23:56:00,68.4,61.0,29.94,SW,233,0.0,0.0,77,0.00,,,0.15,WUHU216DAVISVP2,2013-06-24 04:56:00,